Time,TemperatureF,DewpointF,PressureIn,WindDirection,WindDirectionDegrees,WindSpeedMPH,WindSpeedGustMPH,Humidity,HourlyPrecipIn,Conditions,Clouds,dailyrainin,SoftwareType,DateUTC
2013-01-23 00:14:00,8.0,-9.0,29.90,SW,216,5.0,10.0,47,0.00,,,0.00,weatherlink.com 1.10,2013-01-23 05:14:00,
2013-01-23 00:29:00,7.6,-9.0,29.90,NW,316,4.0,8.0,46,0.00,,,0.00,weatherlink.com 1.10,2013-01-23 05:29:00,
2013-01-23 00:44:00,7.2,-9.0,29.89,SW,234,0.0,10.0,47,0.00,,,0.00,weatherlink.com 1.10,2013-01-23 05:44:00,
2013-01-23 00:59:00,7.0,-9.0,29.90,SW,218,1.0,9.0,49,0.00,,,0.00,weatherlink.com 1.10,2013-01-23 05:59:00,
2013-01-23 01:14:00,6.5,-9.0,29.90,West,266,2.0,7.0,50,0.00,,,0.00,weatherlink.com 1.10,2013-01-23 06:14:00,
2013-01-23 01:29:00,6.4,-10.0,29.90,WSW,246,1.0,8.0,48,0.00,,,0.00,weatherlink.com 1.10,2013-01-23 06:29:00,
2013-01-23 01:44:00,6.2,-10.0,29.91,West,265,0.0,15.0,48,0.00,,,0.00,weatherlink.com 1.10,2013-01-23 06:44:00,
2013-01-23 01:59:00,5.7,-11.0,29.92,SSW,211,2.0,12.0,47,0.00,,,0.00,weatherlink.com 1.10,2013-01-23 06:59:00,
2013-01-23 02:14:00,5.4,-10.0,29.92,SW,236,4.0,10.0,48,0.00,,,0.00,weatherlink.com 1.10,2013-01-23 07:14:00,
2013-01-23 02:29:00,5.1,-11.0,29.92,WNW,292,2.0,15.0,48,0.00,,,0.00,weatherlink.com 1.10,2013-01-23 07:29:00,
2013-01-23 02:44:00,4.9,-11.0,29.92,SW,224,15.0,15.0,48,0.00,,,0.00,weatherlink.com 1.10,2013-01-23 07:44:00,
2013-01-23 02:59:00,4.6,-11.0,29.92,WSW,244,0.0,13.0,49,0.00,,,0.00,weatherlink.com 1.10,2013-01-23 07:59:00,
2013-01-23 03:14:00,4.3,-11.0,29.91,SW,230,0.0,11.0,48,0.00,,,0.00,weatherlink.com 1.10,2013-01-23 08:14:00,
2013-01-23 03:30:00,4.0,-12.0,29.91,SSW,208,2.0,8.0,48,0.00,,,0.00,weatherlink.com 1.10,2013-01-23 08:30:00,
2013-01-23 03:45:00,3.6,-11.0,29.91,SSW,195,3.0,11.0,50,0.00,,,0.00,weatherlink.com 1.10,2013-01-23 08:45:00,
2013-01-23 04:00:00,3.3,-12.0,29.91,West,275,0.0,15.0,50,0.00,,,0.00,weatherlink.com 1.10,2013-01-23 09:00:00,
2013-01-23 04:15:00,3.1,-11.0,29.91,SSW,197,7.0,9.0,51,0.00,,,0.00,weatherlink.com 1.10,2013-01-23 09:15:00,
2013-01-23 04:30:00,2.7,-12.0,29.91,SW,220,2.0,12.0,51,0.00,,,0.00,weatherlink.com 1.10,2013-01-23 09:30:00,
2013-01-23 04:45:00,2.6,-11.0,29.92,SW,234,0.0,10.0,52,0.00,,,0.00,weatherlink.com 1.10,2013-01-23 09:45:00,
2013-01-23 05:00:00,2.3,-12.0,29.92,SW,229,7.0,9.0,52,0.00,,,0.00,weatherlink.com 1.10,2013-01-23 10:00:00,
2013-01-23 05:15:00,1.9,-13.0,29.93,West,277,3.0,11.0,50,0.00,,,0.00,weatherlink.com 1.10,2013-01-23 10:15:00,
2013-01-23 05:30:00,1.6,-13.0,29.94,SW,229,3.0,6.0,51,0.00,,,0.00,weatherlink.com 1.10,2013-01-23 10:30:00,
2013-01-23 05:45:00,1.3,-12.0,29.94,SW,228,2.0,9.0,53,0.00,,,0.00,weatherlink.com 1.10,2013-01-23 10:45:00,
2013-01-23 06:00:00,1.3,-12.0,29.94,SW,228,5.0,10.0,54,0.00,,,0.00,weatherlink.com 1.10,2013-01-23 11:00:00,
2013-01-23 06:15:00,1.1,-12.0,29.94,SW,215,0.0,14.0,54,0.00,,,0.00,weatherlink.com 1.10,2013-01-23 11:15:00,
2013-01-23 06:45:00,0.2,-13.0,29.95,WSW,242,2.0,9.0,55,0.00,,,0.00,weatherlink.com 1.10,2013-01-23 11:45:00,
2013-01-23 07:01:00,0.0,-12.0,29.95,West,271,0.0,8.0,56,0.00,,,0.00,weatherlink.com 1.10,2013-01-23 12:01:00,
2013-01-23 07:16:00,-0.2,-12.0,29.95,SSW,205,4.0,8.0,57,0.00,,,0.00,weatherlink.com 1.10,2013-01-23 12:16:00,
2013-01-23 07:31:00,-0.2,-12.0,29.95,WSW,256,1.0,9.0,58,0.00,,,0.00,weatherlink.com 1.10,2013-01-23 12:31:00,
2013-01-23 07:46:00,-0.2,-12.0,29.95,WSW,250,1.0,12.0,57,0.00,,,0.00,weatherlink.com 1.10,2013-01-23 12:46:00,
2013-01-23 08:16:00,0.2,-13.0,29.96,SW,216,3.0,11.0,54,0.00,,,0.00,weatherlink.com 1.10,2013-01-23 13:16:00,
2013-01-23 08:31:00,0.2,-13.0,29.96,WNW,294,9.0,11.0,53,0.00,,,0.00,weatherlink.com 1.10,2013-01-23 13:31:00,
2013-01-23 08:46:00,0.1,-13.0,29.96,SW,234,8.0,14.0,53,0.00,,,0.00,weatherlink.com 1.10,2013-01-23 13:46:00,
2013-01-23 09:01:00,0.8,-13.0,29.96,SSW,194,4.0,10.0,53,0.00,,,0.00,weatherlink.com 1.10,2013-01-23 14:01:00,
2013-01-23 09:16:00,1.0,-13.0,29.96,South,188,3.0,12.0,53,0.00,,,0.00,weatherlink.com 1.10,2013-01-23 14:16:00,
2013-01-23 09:31:00,1.9,-13.0,29.96,SSW,205,7.0,11.0,50,0.00,,,0.00,weatherlink.com 1.10,2013-01-23 14:31:00,
2013-01-23 09:46:00,1.8,-13.0,29.96,WSW,248,1.0,11.0,50,0.00,,,0.00,weatherlink.com 1.10,2013-01-23 14:46:00,
2013-01-23 10:01:00,2.7,-12.0,29.96,WSW,252,3.0,13.0,50,0.00,,,0.00,weatherlink.com 1.10,2013-01-23 15:01:00,
2013-01-23 10:16:00,3.3,-12.0,29.96,SSW,196,4.0,11.0,48,0.00,,,0.00,weatherlink.com 1.10,2013-01-23 15:16:00,
2013-01-23 10:32:00,3.7,-12.0,29.95,SW,235,6.0,11.0,48,0.00,,,0.00,weatherlink.com 1.10,2013-01-23 15:32:00,
2013-01-23 10:47:00,3.5,-12.0,29.95,WSW,253,1.0,11.0,48,0.00,,,0.00,weatherlink.com 1.10,2013-01-23 15:47:00,
2013-01-23 11:02:00,4.8,-11.0,29.93,ESE,121,3.0,10.0,49,0.00,,,0.00,weatherlink.com 1.10,2013-01-23 16:02:00,
2013-01-23 11:17:00,4.2,-12.0,29.93,SSW,207,7.0,11.0,46,0.00,,,0.00,weatherlink.com 1.10,2013-01-23 16:17:00,
2013-01-23 11:32:00,4.1,-13.0,29.92,SW,236,0.0,12.0,46,0.00,,,0.00,weatherlink.com 1.10,2013-01-23 16:32:00,
2013-01-23 11:47:00,5.2,-12.0,29.91,SSW,212,1.0,13.0,46,0.00,,,0.00,weatherlink.com 1.10,2013-01-23 16:47:00,
2013-01-23 12:02:00,5.9,-11.0,29.91,WSW,252,8.0,14.0,46,0.00,,,0.00,weatherlink.com 1.10,2013-01-23 17:02:00,
2013-01-23 12:32:00,5.8,-12.0,29.89,West,273,5.0,13.0,43,0.00,,,0.00,weatherlink.com 1.10,2013-01-23 17:32:00,
2013-01-23 12:47:00,6.0,-12.0,29.89,West,267,1.0,11.0,43,0.00,,,0.00,weatherlink.com 1.10,2013-01-23 17:47:00,
2013-01-23 13:02:00,6.6,-12.0,29.89,West,276,6.0,11.0,42,0.00,,,0.00,weatherlink.com 1.10,2013-01-23 18:02:00,
2013-01-23 13:17:00,6.4,-14.0,29.89,NW,313,5.0,10.0,38,0.00,,,0.00,weatherlink.com 1.10,2013-01-23 18:17:00,
2013-01-23 13:32:00,5.8,-13.0,29.89,NNE,22,1.0,13.0,41,0.00,,,0.00,weatherlink.com 1.10,2013-01-23 18:32:00,
2013-01-23 13:47:00,6.2,-15.0,29.89,NW,320,1.0,12.0,37,0.00,,,0.00,weatherlink.com 1.10,2013-01-23 18:47:00,
2013-01-23 14:03:00,6.6,-14.0,29.89,WSW,249,6.0,9.0,39,0.00,,,0.00,weatherlink.com 1.10,2013-01-23 19:03:00,
2013-01-23 14:48:00,6.7,-12.0,29.89,SSW,208,6.0,9.0,41,0.00,,,0.00,weatherlink.com 1.10,2013-01-23 19:48:00,
2013-01-23 15:03:00,6.6,-14.0,29.89,WSW,255,0.0,10.0,39,0.00,,,0.00,weatherlink.com 1.10,2013-01-23 20:03:00,
2013-01-23 15:18:00,6.0,-15.0,29.89,WNW,289,7.0,17.0,37,0.00,,,0.00,weatherlink.com 1.10,2013-01-23 20:18:00,
2013-01-23 15:33:00,5.9,-14.0,29.89,SW,227,17.0,17.0,39,0.00,,,0.00,weatherlink.com 1.10,2013-01-23 20:33:00,
2013-01-23 15:48:00,5.4,-15.0,29.89,SW,216,6.0,15.0,38,0.00,,,0.00,weatherlink.com 1.10,2013-01-23 20:48:00,
2013-01-23 16:03:00,5.0,-14.0,29.90,WNW,297,5.0,15.0,40,0.00,,,0.00,weatherlink.com 1.10,2013-01-23 21:03:00,
2013-01-23 16:18:00,4.5,-14.0,29.90,South,176,2.0,7.0,42,0.00,,,0.00,weatherlink.com 1.10,2013-01-23 21:18:00,
2013-01-23 16:33:00,4.1,-13.0,29.91,SW,231,1.0,7.0,45,0.00,,,0.00,weatherlink.com 1.10,2013-01-23 21:33:00,
2013-01-23 16:48:00,3.6,-13.0,29.91,SW,219,6.0,9.0,46,0.00,,,0.00,weatherlink.com 1.10,2013-01-23 21:48:00,
2013-01-23 17:04:00,3.1,-13.0,29.92,WSW,257,0.0,7.0,47,0.00,,,0.00,weatherlink.com 1.10,2013-01-23 22:04:00,
2013-01-23 17:19:00,2.7,-13.0,29.93,SW,234,3.0,8.0,48,0.00,,,0.00,weatherlink.com 1.10,2013-01-23 22:19:00,
2013-01-23 17:34:00,2.5,-14.0,29.93,WSW,247,0.0,7.0,47,0.00,,,0.00,weatherlink.com 1.10,2013-01-23 22:34:00,
2013-01-23 17:49:00,2.2,-14.0,29.93,WNW,290,0.0,8.0,47,0.00,,,0.00,weatherlink.com 1.10,2013-01-23 22:49:00,
2013-01-23 18:04:00,1.8,-14.0,29.94,SSW,199,0.0,3.0,48,0.00,,,0.00,weatherlink.com 1.10,2013-01-23 23:04:00,
2013-01-23 18:19:00,1.3,-13.0,29.94,SSW,207,0.0,5.0,51,0.00,,,0.00,weatherlink.com 1.10,2013-01-23 23:19:00,
2013-01-23 18:34:00,1.4,-13.0,29.93,West,270,0.0,8.0,50,0.00,,,0.00,weatherlink.com 1.10,2013-01-23 23:34:00,
2013-01-23 18:49:00,1.1,-14.0,29.94,WSW,258,0.0,9.0,50,0.00,,,0.00,weatherlink.com 1.10,2013-01-23 23:49:00,
2013-01-23 19:04:00,0.7,-14.0,29.94,SW,219,1.0,4.0,51,0.00,,,0.00,weatherlink.com 1.10,2013-01-24 00:04:00,
2013-01-23 19:19:00,0.6,-13.0,29.93,SW,220,0.0,7.0,52,0.00,,,0.00,weatherlink.com 1.10,2013-01-24 00:19:00,
2013-01-23 19:34:00,0.8,-13.0,29.94,West,268,0.0,10.0,52,0.00,,,0.00,weatherlink.com 1.10,2013-01-24 00:34:00,
2013-01-23 19:49:00,0.6,-13.0,29.94,SW,223,0.0,8.0,52,0.00,,,0.00,weatherlink.com 1.10,2013-01-24 00:49:00,
2013-01-23 20:04:00,0.3,-13.0,29.94,SW,230,4.0,7.0,53,0.00,,,0.00,weatherlink.com 1.10,2013-01-24 01:04:00,
2013-01-23 20:19:00,0.1,-13.0,29.94,SSW,208,3.0,8.0,55,0.00,,,0.00,weatherlink.com 1.10,2013-01-24 01:19:00,
2013-01-23 20:34:00,0.0,-12.0,29.94,NNW,329,0.0,11.0,56,0.00,,,0.00,weatherlink.com 1.10,2013-01-24 01:34:00,
2013-01-23 20:50:00,-0.2,-13.0,29.93,WNW,284,3.0,10.0,56,0.00,,,0.00,weatherlink.com 1.10,2013-01-24 01:50:00,
2013-01-23 21:05:00,-0.2,-13.0,29.94,SSW,198,0.0,8.0,56,0.00,,,0.00,weatherlink.com 1.10,2013-01-24 02:05:00,
2013-01-23 21:20:00,-0.5,-13.0,29.94,WSW,242,0.0,6.0,56,0.00,,,0.00,weatherlink.com 1.10,2013-01-24 02:20:00,
2013-01-23 21:35:00,-0.8,-13.0,29.93,WSW,250,1.0,8.0,56,0.00,,,0.00,weatherlink.com 1.10,2013-01-24 02:35:00,
2013-01-23 21:50:00,-0.8,-13.0,29.94,WSW,244,0.0,8.0,56,0.00,,,0.00,weatherlink.com 1.10,2013-01-24 02:50:00,
2013-01-23 22:05:00,-1.3,-14.0,29.94,SW,224,7.0,9.0,56,0.00,,,0.00,weatherlink.com 1.10,2013-01-24 03:05:00,
2013-01-23 22:20:00,-1.4,-14.0,29.94,North,355,4.0,7.0,56,0.00,,,0.00,weatherlink.com 1.10,2013-01-24 03:20:00,
2013-01-23 22:35:00,-1.6,-14.0,29.94,West,265,5.0,5.0,56,0.00,,,0.00,weatherlink.com 1.10,2013-01-24 03:35:00,
2013-01-23 22:50:00,-1.8,-14.0,29.94,WSW,238,0.0,7.0,56,0.00,,,0.00,weatherlink.com 1.10,2013-01-24 03:50:00,
2013-01-23 23:05:00,-2.1,-14.0,29.93,SSW,209,2.0,6.0,57,0.00,,,0.00,weatherlink.com 1.10,2013-01-24 04:05:00,
2013-01-23 23:21:00,-2.2,-14.0,29.94,West,260,0.0,7.0,57,0.00,,,0.00,weatherlink.com 1.10,2013-01-24 04:21:00,
2013-01-23 23:35:00,-2.4,-14.0,29.93,WNW,292,1.0,4.0,57,0.00,,,0.00,weatherlink.com 1.10,2013-01-24 04:35:00,
2013-01-23 23:50:00,-2.7,-14.0,29.93,WSW,237,0.0,8.0,58,0.00,,,0.00,weatherlink.com 1.10,2013-01-24 04:50:00,